Wind_Speed
33 33 30 28 26 26 27 25 21 19 17 17 17 17 16 17 16 17 17 17 15 13 11 11 10 10 9 7 9 11 14 17 19 21 22 23 22 22 22 22 22 20 19 17 17 18 21 23 25 27 28 30 31 32 32 31 30 30 30 28 28 29 31 34 36 38 39 37 35 34 33 35 36 34 30 28 26 28 33 34 31 28 29 33 33
34 34 32 31 29 26 27 26 22 19 18 17 17 16 16 16 16 17 17 17 15 13 12 12 11 9 7 8 10 13 16 18 21 22 23 23 23 23 24 25 26 26 24 22 20 20 21 22 23 25 26 28 30 32 33 33 31 32 32 30 28 28 27 29 33 37 39 38 35 34 33 33 34 33 31 30 28 28 30 30 30 29 29 33 35
35 35 35 34 31 29 28 27 23 21 19 17 16 16 16 16 17 17 17 16 14 13 12 12 11 8 8 10 12 15 18 20 22 23 24 24 24 24 24 26 27 27 26 26 24 22 22 22 22 22 23 25 27 29 32 34 33 33 33 32 30 29 27 26 27 30 35 37 36 36 34 31 30 30 29 29 28 28 30 31 31 31 30 34 36
36 36 37 36 34 31 30 27 24 22 20 18 17 16 16 16 16 16 16 15 14 13 13 12 10 8 9 12 14 17 19 21 23 24 24 24 23 23 23 24 25 25 25 25 24 23 22 22 22 21 21 23 24 25 27 31 34 34 35 34 33 32 31 29 27 27 30 34 38 38 34 30 28 27 28 28 27 28 29 30 31 30 31 33 33
40 38 38 38 36 34 31 28 25 23 21 18 17 16 16 16 16 16 15 14 13 13 12 11 9 9 11 13 16 18 20 22 23 24 23 22 22 23 23 23 23 23 24 24 23 22 22 23 22 22 22 23 24 24 24 26 30 34 36 37 35 33 32 31 30 28 28 30 34 36 34 31 28 27 27 28 29 29 28 30 31 31 31 32 31
40 40 39 38 38 35 32 29 26 23 21 18 17 16 15 15 15 14 14 13 13 12 11 10 10 11 13 15 17 20 22 23 23 22 22 22 22 24 24 24 24 23 23 23 23 23 23 23 23 23 23 25 25 25 24 24 25 28 34 37 37 35 34 33 30 29 29 28 29 30 32 32 29 27 28 29 29 29 28 30 33 34 34 35 34
38 40 40 37 37 36 33 29 26 22 20 18 16 15 14 13 12 12 12 12 12 11 10 10 11 13 15 17 20 22 23 22 21 21 21 22 23 24 25 25 25 23 22 22 22 23 24 24 25 25 25 25 26 26 25 24 24 24 28 34 37 37 36 36 33 30 29 27 26 27 30 31 30 30 30 30 29 30 30 32 35 36 36 36 36
41 41 40 38 37 36 32 28 24 21 19 16 14 13 12 11 11 11 11 11 11 10 10 11 12 14 17 20 22 23 22 22 21 21 22 23 24 24 25 25 25 24 23 22 22 23 23 23 25 25 26 26 26 26 26 26 26 26 25 27 33 37 39 38 37 34 31 29 27 25 25 26 29 31 32 31 31 31 31 32 35 36 36 36 36
45 43 41 39 37 34 31 27 22 20 18 15 14 12 11 10 10 9 9 10 10 10 10 12 14 17 20 22 22 21 22 23 24 24 26 27 27 26 25 25 24 24 25 25 25 25 25 25 25 25 26 27 27 28 29 29 29 30 29 27 28 33 38 40 40 39 36 34 33 31 27 25 26 28 31 33 32 32 31 32 35 37 38 38 37
47 43 40 39 34 31 29 25 22 20 18 15 14 12 10 9 7 7 8 9 9 9 11 14 17 19 20 20 20 21 23 25 26 27 29 29 29 29 27 24 23 23 24 26 27 27 28 28 28 27 27 27 28 29 30 30 31 32 33 32 30 31 34 38 41 42 40 39 38 36 33 30 26 25 28 30 29 29 30 31 33 37 40 40 39
48 43 42 39 32 29 29 26 24 22 19 16 15 12 9 6 5 6 8 9 9 11 14 16 18 18 18 19 20 22 24 26 27 29 30 30 30 30 28 26 25 26 27 28 29 29 29 30 30 30 30 30 29 28 28 29 30 30 31 32 32 32 31 33 37 40 42 42 42 40 38 37 32 27 26 26 25 26 27 29 32 36 39 40 41
49 46 46 42 35 33 31 29 27 24 19 17 15 11 7 4 5 7 8 9 11 14 16 17 17 17 17 18 20 23 25 26 28 29 30 30 30 29 28 28 29 29 30 31 32 32 32 33 32 33 33 33 32 31 31 30 29 30 30 31 32 33 32 32 33 36 39 41 44 44 42 41 39 36 31 28 27 26 26 28 31 35 38 39 40
46 45 46 43 38 36 33 31 29 24 20 18 15 9 6 6 7 8 9 11 14 16 17 16 16 16 17 20 23 25 27 27 28 29 30 30 29 28 28 29 31 32 32 33 34 34 35 35 35 35 35 35 34 34 33 33 31 30 31 31 33 34 34 34 34 36 37 38 42 46 46 44 43 43 39 32 29 29 28 29 30 33 36 39 39
44 45 46 45 41 37 34 33 30 24 22 20 14 9 8 7 7 9 11 14 16 17 17 16 17 18 20 23 26 27 28 28 28 28 28 28 27 27 29 31 32 34 34 35 36 36 36 35 35 36 35 35 35 34 33 33 33 33 33 33 34 34 35 35 35 35 35 35 38 43 46 45 46 47 43 36 34 34 32 31 30 32 35 38 40
43 46 47 45 41 37 36 35 30 26 24 20 14 10 8 7 9 11 14 16 17 17 17 18 19 21 23 25 25 26 26 26 26 26 26 27 28 28 30 32 33 35 36 36 36 36 35 34 34 35 35 35 34 32 32 32 33 34 35 36 37 37 37 37 35 34 33 33 35 38 41 42 44 45 43 39 38 38 35 33 32 31 34 37 41
39 43 44 41 38 38 39 35 29 27 25 19 13 11 9 10 11 13 15 16 17 17 18 19 21 21 21 21 22 23 23 23 23 24 25 26 27 28 30 32 34 35 36 37 36 35 34 33 34 35 36 35 34 32 32 32 33 35 37 38 39 40 42 41 38 36 36 37 37 38 38 39 40 41 40 38 38 37 36 37 36 34 35 38 40
34 36 35 33 33 36 35 30 28 27 23 16 12 11 11 12 13 14 15 16 16 16 18 19 18 18 19 20 23 25 26 25 25 26 26 27 28 29 30 31 33 34 36 36 36 35 35 34 34 36 37 37 36 35 33 32 34 36 37 39 39 41 43 42 38 38 39 39 41 41 40 38 37 38 40 39 38 35 35 39 41 40 40 40 42
32 32 29 29 32 34 31 28 27 24 18 13 12 12 13 13 12 13 14 15 14 15 15 15 16 19 21 23 26 29 31 32 31 30 30 29 30 30 31 31 32 33 35 35 36 36 36 35 35 36 39 39 38 38 36 34 35 36 37 39 41 43 43 40 37 37 37 37 38 41 42 40 37 37 38 38 38 37 37 39 41 41 43 44 43
33 31 30 33 36 35 31 27 25 20 16 14 13 13 13 12 11 12 12 12 12 13 14 15 18 23 25 26 28 31 36 39 37 35 33 32 31 30 30 31 32 33 34 36 37 37 37 37 37 37 39 39 39 39 38 36 36 36 37 39 43 45 43 40 38 38 36 36 36 37 41 43 40 38 38 37 37 37 39 39 38 40 42 43 43
31 33 36 38 35 31 28 26 22 18 16 15 14 13 12 9 7 7 8 9 11 14 15 16 20 24 26 28 29 32 37 41 40 37 35 33 32 30 29 30 32 33 35 36 38 39 39 39 39 39 38 39 39 39 38 37 36 36 37 40 44 45 41 39 39 38 36 36 36 34 37 42 43 41 38 38 37 37 39 39 39 40 41 40 42
35 38 39 37 32 28 27 24 20 17 15 15 14 12 7 1 3 6 7 9 12 15 16 18 21 25 27 29 30 32 37 42 42 39 37 35 33 30 30 31 32 34 36 37 38 40 40 40 40 40 39 39 38 38 38 37 36 37 38 40 42 41 39 39 40 38 36 36 36 35 36 40 43 44 40 38 37 37 38 39 39 40 40 40 41
39 38 35 33 31 29 26 23 19 17 16 13 11 7 4 7 9 8 8 10 13 15 17 19 23 26 28 29 30 32 36 42 44 43 40 37 34 32 31 31 31 33 35 37 38 39 40 41 41 40 39 39 39 39 39 38 38 39 40 40 39 37 36 38 39 39 40 40 39 40 39 38 41 44 43 39 37 36 37 38 38 39 40 38 39
38 36 35 35 32 28 24 21 18 16 13 9 7 6 7 9 10 8 9 11 13 15 18 20 23 26 27 28 29 32 36 42 45 45 43 40 37 34 32 32 31 32 34 37 38 39 40 41 41 40 39 39 39 39 39 38 39 40 41 40 39 37 35 35 37 39 41 41 41 42 42 38 38 42 44 41 37 35 36 36 36 37 39 39 40
38 38 38 35 30 25 21 18 16 13 10 8 7 6 5 6 8 9 9 11 13 16 19 21 24 25 27 29 30 32 37 42 45 46 45 42 40 38 34 32 32 32 34 37 38 40 41 41 41 40 39 38 38 38 38 38 39 41 41 40 39 37 36 36 37 38 39 40 41 42 41 38 36 39 42 41 37 34 34 33 32 34 39 43 44
41 39 36 31 25 21 18 16 15 12 9 8 6 4 3 4 7 8 8 10 13 16 19 21 23 25 27 29 31 34 38 42 46 47 46 43 42 39 35 33 32 33 35 37 38 39 40 40 39 38 37 37 36 36 36 38 39 40 41 39 38 38 38 38 37 38 40 41 41 41 41 40 37 35 37 39 36 31 31 31 30 32 39 44 45
37 35 31 26 22 19 18 17 14 11 8 7 5 3 2 4 6 7 8 10 13 16 18 20 22 25 27 30 33 35 38 42 46 47 46 43 41 38 35 34 34 35 36 38 38 37 37 36 36 36 35 35 34 33 34 34 35 36 38 38 38 38 39 39 39 40 41 41 41 41 40 38 36 32 34 37 36 30 29 30 31 33 37 40 42
34 32 28 25 21 19 18 16 13 10 8 6 4 2 1 6 8 7 7 9 13 15 17 19 21 24 27 30 32 35 38 42 45 46 45 42 40 37 36 36 36 37 37 36 35 34 34 34 33 33 33 33 31 31 31 32 32 33 35 35 35 36 38 40 41 41 41 40 39 38 36 35 33 31 31 35 35 30 27 27 30 34 36 37 39
33 29 26 23 20 18 17 15 12 10 8 5 4 2 3 8 8 6 7 11 14 16 17 20 22 24 27 30 32 35 38 41 44 45 44 41 38 37 37 37 37 36 35 34 33 33 33 32 31 30 29 29 28 29 31 31 31 31 32 32 31 31 33 36 39 39 39 37 36 35 34 32 31 29 29 33 34 30 25 25 29 32 33 33 37
31 27 24 21 18 16 16 13 10 8 7 6 4 2 8 10 8 8 10 13 15 16 17 20 22 24 27 29 31 34 38 41 43 44 42 38 36 36 36 35 34 33 32 31 32 33 33 31 29 28 27 28 29 30 30 29 28 28 28 27 27 27 29 33 35 36 36 35 35 34 33 30 29 28 28 31 33 30 25 25 28 30 30 32 35
30 26 22 19 18 17 14 11 9 9 8 5 2 5 9 9 8 10 12 13 14 16 18 21 23 24 27 28 29 33 37 40 43 43 40 36 34 33 33 31 30 29 28 28 29 30 30 30 29 28 28 29 30 29 27 26 26 25 25 25 25 25 28 31 33 32 32 33 33 32 30 29 27 27 28 31 33 30 25 25 29 31 32 33 36
29 26 21 19 18 16 12 11 11 10 6 3 4 6 8 7 7 9 11 13 15 17 20 22 23 24 26 27 29 31 35 39 42 41 37 34 32 31 30 29 26 25 24 24 25 25 26 27 28 27 28 28 27 25 23 22 23 23 24 25 25 25 27 30 32 31 30 30 30 29 29 29 28 28 30 32 32 30 27 27 31 33 33 34 35
27 23 20 19 17 15 12 10 9 7 3 3 4 7 8 8 8 9 12 15 16 17 20 21 22 23 24 25 28 32 35 39 41 38 34 32 31 30 29 26 23 21 20 20 21 22 22 23 24 24 25 25 24 21 19 18 18 19 20 23 25 26 28 29 31 32 31 29 29 31 31 30 29 29 30 32 33 31 29 31 33 34 33 33 33
23 21 19 18 16 14 12 10 7 3 2 2 3 6 9 10 11 12 14 16 16 17 19 21 21 22 23 24 27 30 34 38 39 35 32 31 30 29 28 24 20 19 18 18 19 19 19 19 20 21 22 23 21 20 18 17 15 15 15 17 19 22 24 25 28 31 32 31 31 32 31 30 30 30 30 33 35 33 31 33 34 34 33 33 32
22 20 18 16 14 12 9 6 2 1 1 1 2 7 10 12 14 14 15 16 16 18 19 20 21 22 22 24 26 29 33 37 37 33 30 30 29 28 27 23 19 18 19 20 20 20 20 19 19 20 20 20 18 17 17 17 15 13 13 13 14 16 18 20 24 28 30 31 32 31 30 30 31 31 32 34 35 34 33 35 36 36 35 34 33
20 16 14 13 11 9 6 2 1 1 3 3 4 8 11 14 15 14 13 14 16 18 19 19 21 23 24 25 27 29 33 37 36 31 30 31 29 28 28 27 24 22 21 21 21 21 21 21 20 20 19 18 17 16 15 15 14 13 13 13 14 15 17 20 23 25 28 31 33 32 31 31 32 34 35 36 35 35 36 37 38 38 37 36 35
15 12 11 11 9 6 4 3 1 2 3 4 7 10 12 13 14 12 12 12 14 17 19 19 21 24 25 26 28 30 34 37 36 32 31 32 30 30 31 31 30 28 27 25 24 23 23 22 21 20 19 17 16 15 14 13 12 12 12 14 15 16 16 17 18 19 21 26 29 31 31 32 34 35 35 35 36 36 36 37 38 39 39 37 36
13 11 10 10 8 4 2 2 2 3 2 5 8 10 10 10 10 11 12 12 12 16 19 19 22 26 29 29 30 31 34 37 36 33 33 32 31 31 32 31 30 30 29 28 27 26 25 24 22 21 19 17 16 14 13 12 11 10 10 12 13 14 14 14 13 13 15 20 24 28 30 32 33 34 35 36 37 37 37 38 40 40 39 37 35
12 11 9 8 5 1 1 0 3 4 4 6 7 7 7 8 9 11 13 12 11 16 20 21 23 28 31 31 31 31 34 38 38 36 36 35 33 32 33 31 30 29 29 29 28 27 27 26 24 22 20 18 16 14 13 12 11 10 10 10 10 10 11 12 12 12 15 19 23 27 30 32 34 36 37 38 38 38 39 40 40 39 37 35 35
12 10 7 4 2 2 3 3 4 5 4 4 4 3 5 7 8 10 11 10 10 15 21 23 24 27 30 31 31 31 34 40 42 40 38 37 35 33 33 32 30 30 29 29 28 27 27 26 25 23 21 18 16 14 13 12 11 9 9 8 7 7 8 10 12 14 17 21 25 30 33 35 36 37 36 36 37 37 38 39 38 37 36 36 37
10 8 6 5 6 7 7 5 5 6 5 3 2 2 4 5 6 8 9 8 8 14 20 22 23 26 28 30 30 30 33 40 43 40 38 37 35 33 33 31 30 29 29 28 27 26 26 25 24 23 21 18 16 15 13 11 10 8 7 7 6 7 7 9 13 17 20 23 26 30 32 33 33 33 33 34 35 36 37 37 36 36 36 37 40
9 8 7 8 9 10 8 6 7 7 4 1 1 2 3 3 5 8 9 7 8 13 18 20 22 24 27 29 28 28 31 37 42 41 38 36 34 32 32 31 29 28 27 27 26 25 25 24 23 22 20 18 16 15 13 11 9 7 6 5 5 6 8 10 13 17 21 23 25 27 28 29 30 31 32 33 34 34 35 35 36 37 38 39 41
11 10 9 8 8 9 8 7 6 5 2 1 2 3 3 4 6 8 9 8 8 12 16 18 20 22 25 28 28 27 28 34 40 41 39 36 34 32 31 30 29 28 26 25 24 23 23 23 22 21 19 17 15 14 12 10 7 5 4 3 4 5 7 10 12 15 18 20 22 23 25 27 29 30 31 32 32 33 34 36 38 39 40 40 41
14 13 11 10 10 9 8 6 5 4 3 3 4 3 4 6 8 9 9 8 8 10 14 17 19 20 22 25 26 26 28 31 36 40 40 37 34 32 31 30 29 27 25 24 23 22 21 21 20 19 18 16 14 13 11 9 6 3 1 1 3 4 6 8 11 13 16 18 20 22 24 26 28 29 29 30 30 32 35 37 38 40 41 41 40
13 13 12 12 11 9 8 6 5 4 4 4 3 3 5 6 8 10 10 8 7 9 12 15 17 18 20 22 24 26 27 29 32 37 40 39 35 33 31 30 29 28 26 24 23 22 20 19 19 18 17 16 14 12 10 7 5 2 1 3 5 7 8 10 11 14 16 19 21 23 25 26 27 28 28 29 30 33 37 39 40 41 41 40 39
10 9 9 9 8 7 6 5 4 4 4 3 3 4 5 5 7 10 10 9 8 10 11 13 16 18 18 20 22 23 25 26 28 32 36 39 37 33 31 30 29 28 26 25 23 22 20 18 18 18 17 15 14 12 10 8 5 3 3 5 7 9 12 13 14 16 17 20 22 25 26 27 28 29 31 32 34 37 40 41 41 41 40 39 38
9 7 6 6 6 6 5 4 3 3 3 3 4 5 6 6 7 9 10 9 10 11 11 12 14 16 16 18 20 22 23 24 25 27 31 36 37 34 31 30 29 28 27 26 24 22 21 19 18 18 17 16 14 12 10 9 7 6 6 7 9 11 14 15 17 18 20 21 24 27 29 31 32 33 35 38 39 40 42 42 41 40 39 38 37
8 8 7 6 6 6 5 4 3 3 3 3 4 6 8 8 8 9 9 9 10 11 11 12 13 14 15 16 19 21 22 22 23 23 25 29 34 35 33 30 28 28 28 27 26 24 22 21 20 19 18 17 16 14 12 11 10 9 9 9 10 12 15 17 19 21 23 24 27 29 32 35 36 37 38 40 41 42 42 41 39 38 37 37 36
5 5 5 5 4 3 3 2 2 3 4 4 4 6 9 10 10 10 10 10 10 10 10 11 12 12 13 14 17 20 21 21 21 21 21 23 27 32 33 31 28 27 27 28 28 26 24 22 20 20 20 20 19 17 15 14 12 11 11 11 11 13 15 17 20 23 25 27 29 31 34 37 39 40 41 41 41 41 39 38 37 37 37 37 36
5 5 5 5 4 4 4 4 4 5 6 6 7 8 9 10 11 12 12 11 10 9 8 9 10 11 11 12 14 17 20 21 20 21 20 20 21 25 30 31 29 27 26 27 27 27 25 24 22 20 19 20 20 20 19 16 14 13 13 12 11 12 14 17 21 24 26 28 30 32 35 38 40 41 40 40 39 38 37 36 36 36 35 34 33
8 8 8 8 8 8 8 8 7 8 8 8 8 8 9 10 10 11 11 11 11 9 8 8 9 9 10 10 11 14 17 19 20 20 20 19 18 19 23 28 29 28 27 26 26 26 24 24 23 22 21 20 19 20 20 18 16 15 14 12 12 12 13 16 20 23 24 26 29 32 34 36 37 37 36 36 36 36 35 35 33 32 31 30 29
8 8 8 8 9 9 8 8 8 9 9 8 8 9 9 9 9 9 10 11 11 10 9 9 8 8 8 9 10 11 13 16 17 18 18 19 18 17 18 21 25 26 26 26 28 28 25 23 22 23 23 22 21 20 20 18 17 16 14 13 13 13 14 16 18 21 23 25 27 28 30 31 32 32 33 33 33 32 31 30 29 29 29 30 30
Wind_Direction
228 227 225 224 227 232 235 234 230 227 224 226 231 234 237 238 238 240 241 244 249 254 261 269 272 273 277 294 314 322 325 327 326 325 325 324 325 325 325 323 320 315 309 302 293 281 272 266 264 264 264 261 258 256 255 254 255 256 258 261 265 269 270 266 263 268 273 273 271 270 268 267 266 267 266 260 258 257 250 241 239 244 251 255 257
231 231 228 226 227 230 234 232 227 224 222 224 228 232 235 236 236 240 243 246 252 257 263 267 266 269 284 307 318 323 323 323 322 321 321 321 321 322 320 316 314 312 309 304 299 293 283 274 266 262 263 263 261 259 256 254 252 253 255 259 261 264 270 272 266 264 268 271 270 269 269 267 265 265 266 262 255 254 255 252 249 252 256 258 260
234 233 231 230 229 230 232 230 225 222 221 223 226 229 232 235 236 240 244 248 252 257 260 263 266 277 300 314 318 321 319 318 318 318 317 317 315 314 311 309 307 305 303 301 297 294 290 284 275 266 262 263 262 261 258 254 251 250 251 255 259 261 265 275 275 269 268 270 270 270 268 267 264 263 265 265 261 256 255 255 255 255 257 257 259
233 233 233 232 231 231 231 228 224 221 221 223 225 227 229 232 235 239 243 247 250 255 258 261 269 289 307 313 315 315 314 314 315 314 313 312 309 307 304 303 301 300 297 293 291 290 290 288 283 277 272 267 263 262 262 258 253 250 249 251 255 259 262 268 274 278 277 274 270 268 268 268 266 263 263 265 265 262 256 254 254 254 255 255 256
229 231 233 233 232 232 230 227 223 220 221 222 223 225 227 229 231 235 239 243 248 252 257 265 279 295 304 307 309 310 309 309 309 310 311 309 307 305 303 301 300 299 297 293 291 291 292 291 288 285 283 279 271 266 265 264 258 252 250 249 251 256 260 263 267 273 278 281 276 266 263 266 264 260 263 265 264 262 257 253 254 254 253 253 253
229 230 232 233 233 232 229 226 223 221 221 221 222 225 225 227 230 233 237 240 245 251 261 273 286 295 300 303 304 303 302 303 307 311 312 311 308 305 304 303 302 302 302 301 299 298 297 296 294 292 289 286 282 277 273 271 267 258 252 249 249 251 255 258 261 266 272 281 284 273 263 261 259 257 263 266 264 264 263 260 259 257 253 252 251
230 230 232 235 235 233 229 225 222 223 222 221 224 226 226 228 231 234 238 241 246 256 267 278 289 296 298 298 296 294 296 301 308 312 311 309 307 303 301 301 302 302 301 301 300 298 297 297 297 296 293 291 289 288 285 281 276 268 257 251 249 249 251 253 256 261 265 272 281 279 271 266 261 258 261 266 265 266 266 263 260 258 254 252 252
228 228 232 237 238 235 231 227 224 224 223 222 225 227 228 232 235 236 240 246 254 264 275 286 293 294 291 289 289 292 297 306 312 312 310 309 306 301 299 298 298 296 294 292 291 289 289 289 290 290 290 291 290 290 290 289 285 279 268 258 252 250 250 251 254 257 258 260 266 274 277 274 268 261 256 256 259 261 265 265 262 260 258 256 254
225 220 224 231 236 236 233 230 229 227 224 224 224 226 230 233 236 241 248 257 267 276 285 289 287 285 285 288 294 301 307 311 313 314 314 313 310 306 301 298 296 295 292 291 289 287 285 284 283 282 282 283 282 281 280 280 280 279 275 269 261 254 251 251 251 254 257 257 257 263 271 274 274 269 259 253 257 264 267 266 262 261 260 257 255
223 215 216 222 230 236 235 233 233 230 225 226 225 225 230 233 239 252 263 272 280 286 287 284 283 286 291 298 305 310 310 310 311 312 313 312 310 308 303 298 296 296 295 294 292 289 288 285 283 281 280 279 279 279 277 275 273 273 273 272 268 262 258 255 252 252 256 260 257 258 263 265 269 275 270 262 262 267 269 268 264 261 257 253 252
223 218 214 214 221 230 230 233 235 228 224 226 225 224 228 237 254 268 275 283 288 289 287 287 290 296 302 307 308 307 305 306 307 308 308 308 308 307 303 300 300 300 300 299 297 295 292 289 286 283 281 279 277 277 278 278 276 274 272 270 268 266 262 260 258 255 256 260 260 259 259 259 259 264 273 274 271 270 272 271 266 261 257 254 253
224 221 214 209 212 216 220 227 227 220 220 222 219 221 230 245 267 273 280 288 289 287 289 292 297 301 302 300 299 300 301 304 305 305 305 306 307 306 303 301 301 301 300 299 298 297 294 291 289 286 283 281 278 276 274 274 276 276 274 271 268 265 260 256 257 257 256 258 260 260 260 260 259 257 262 272 276 275 275 270 265 262 260 258 257
222 218 213 207 204 204 211 218 215 211 216 216 213 218 229 242 260 269 276 281 283 284 288 291 292 292 292 294 298 302 305 306 305 304 304 304 304 303 301 299 299 298 298 296 295 294 293 292 290 288 287 285 282 280 276 273 272 272 272 272 270 267 262 256 251 251 254 257 259 259 258 260 261 258 256 260 267 273 274 268 265 265 262 260 259
220 214 211 205 200 200 204 205 204 206 209 209 209 214 221 236 251 259 268 273 276 280 283 285 286 289 296 302 306 308 308 306 304 302 302 301 299 298 297 296 295 294 294 293 293 293 292 291 289 288 287 286 285 283 280 276 273 270 268 268 268 268 267 263 256 251 251 254 258 259 258 259 261 260 259 258 259 264 269 268 267 267 264 261 257
217 211 208 205 202 201 196 193 196 199 199 200 202 204 215 231 240 252 263 268 272 277 281 286 293 300 307 311 312 312 310 307 305 302 301 300 297 294 292 291 291 291 290 290 291 291 290 288 286 285 285 285 285 284 282 280 277 273 270 266 264 263 263 262 261 256 250 248 250 254 256 256 257 259 261 261 258 258 262 267 268 266 263 261 258
212 209 206 206 204 196 188 187 191 192 190 192 193 197 213 227 237 250 258 262 271 281 289 296 302 309 316 320 323 323 322 318 312 307 304 302 299 295 291 288 287 287 287 287 288 287 286 284 283 284 284 284 284 283 282 281 278 275 273 270 268 265 262 260 259 256 252 246 243 245 249 250 251 253 256 258 258 257 258 261 262 260 259 258 257
212 212 208 203 200 192 183 182 185 184 184 185 188 198 212 223 235 247 254 264 277 286 293 302 310 317 324 330 334 335 334 330 324 316 311 307 303 299 294 290 287 286 286 286 285 283 281 280 281 282 283 284 284 283 282 280 277 274 271 271 271 270 267 265 263 260 257 252 245 241 243 246 248 249 250 251 253 253 252 253 254 254 255 255 253
209 211 207 200 196 190 183 181 182 181 180 182 190 202 213 223 236 246 258 274 284 289 297 308 318 323 325 328 331 332 333 333 330 325 320 315 308 303 298 293 290 288 287 285 283 282 280 279 278 278 279 281 282 283 282 279 275 272 268 267 268 268 267 268 268 265 263 261 254 244 240 243 246 248 248 248 249 248 246 246 250 252 253 253 253
205 204 203 199 193 186 181 180 180 178 179 186 196 206 214 226 241 251 269 283 288 295 303 308 315 320 323 324 325 328 330 332 331 328 325 321 313 305 299 295 292 289 287 285 284 282 280 279 277 276 277 279 280 281 281 279 275 271 267 264 263 263 265 266 267 266 264 265 262 251 241 240 243 246 247 246 246 245 245 244 246 249 251 252 252
201 200 198 191 183 177 177 179 178 178 183 191 198 206 212 224 246 270 291 297 297 302 303 302 308 314 318 320 321 324 329 333 333 330 327 324 317 306 298 295 293 290 289 286 284 282 281 280 279 278 277 278 278 279 278 276 274 271 268 263 260 260 262 263 264 265 264 264 264 258 246 240 240 242 245 246 245 244 244 243 243 246 249 252 253
193 193 189 182 177 177 179 178 177 179 184 191 196 198 198 211 355 341 325 308 303 304 300 300 305 310 314 317 317 320 330 336 337 334 330 326 320 310 298 294 293 292 291 288 286 284 282 280 279 279 279 279 279 279 278 276 273 270 266 263 261 261 261 260 260 260 260 260 261 259 252 243 238 237 239 243 243 241 240 241 242 244 247 250 252
189 188 184 179 178 178 175 173 176 180 182 185 182 164 84 31 14 352 328 312 306 304 300 301 305 308 312 315 313 316 328 336 338 336 333 328 323 314 302 295 295 295 294 292 289 286 284 283 281 281 281 281 280 279 278 275 272 268 264 262 261 260 259 259 258 257 257 257 257 257 255 249 241 235 234 238 241 240 238 239 241 244 246 250 254
186 185 181 177 174 170 169 171 174 176 171 153 123 91 47 19 3 340 318 311 307 301 299 301 305 308 312 312 309 314 326 334 336 336 333 329 325 318 308 300 298 298 296 293 291 289 286 285 284 283 283 283 281 279 276 273 269 266 263 261 258 256 254 254 255 255 256 256 257 257 256 253 246 237 232 234 239 241 239 239 242 245 246 249 253
179 179 173 166 162 162 163 164 162 157 141 114 94 72 37 1 342 326 311 306 304 300 299 302 307 310 311 308 306 313 325 332 335 334 333 329 325 321 313 305 301 300 297 294 292 291 289 288 287 286 285 284 281 278 275 271 268 265 262 260 256 252 249 248 249 251 253 253 254 255 254 253 250 241 234 233 237 241 241 241 245 247 244 244 246
169 169 164 158 158 159 158 155 153 145 122 105 100 71 24 337 322 318 308 302 301 300 301 306 310 310 308 307 309 316 325 331 333 333 333 330 326 321 316 309 305 304 300 297 295 293 291 290 289 288 285 283 281 278 274 270 268 266 264 261 255 249 245 244 245 246 248 250 252 254 254 254 251 245 238 235 237 240 241 241 245 246 241 239 240
158 160 159 155 155 156 154 149 145 141 129 110 97 79 357 322 319 313 302 301 304 306 309 313 313 311 311 313 317 322 328 331 333 334 333 330 325 321 318 314 311 309 305 301 299 297 295 293 292 289 286 284 281 277 275 273 272 270 267 262 255 247 242 241 242 243 246 249 251 252 254 254 252 249 243 237 236 239 241 242 245 245 239 237 238
153 154 153 151 152 155 156 150 139 140 146 126 98 115 316 335 331 314 303 311 317 318 319 321 320 318 319 321 324 327 330 332 334 334 333 329 325 322 321 318 316 314 310 306 305 303 300 297 294 291 288 286 283 279 277 276 273 270 267 262 254 246 240 238 239 242 245 248 250 251 251 252 253 251 244 237 234 235 238 244 247 242 236 236 236
150 148 148 151 153 153 154 152 142 136 140 138 137 136 1 351 346 334 324 326 330 331 330 331 329 326 326 327 327 329 332 333 335 335 333 329 326 324 322 321 319 315 313 311 310 306 303 301 298 294 291 289 288 286 283 277 271 266 265 262 255 246 241 238 238 241 244 246 248 249 249 250 251 249 243 237 233 230 234 244 245 238 234 236 234
145 144 147 152 153 151 149 147 141 137 139 148 158 19 5 7 5 353 341 340 343 342 340 341 338 332 331 332 331 331 332 334 336 336 333 329 326 324 323 322 319 316 314 313 310 307 305 305 303 301 300 299 297 295 289 281 273 266 263 261 254 245 241 239 237 238 239 241 243 245 246 246 246 245 243 238 232 229 232 240 241 236 235 236 232
145 145 146 147 149 150 145 139 139 143 140 125 74 14 13 17 5 350 350 356 357 353 350 349 343 334 332 334 334 333 333 334 336 336 333 329 326 325 324 323 320 316 315 313 309 306 307 308 306 305 306 304 301 298 292 284 276 268 264 261 254 246 241 239 237 235 235 236 238 239 240 240 240 241 241 236 231 227 229 236 240 239 236 232 226
150 147 141 138 142 144 144 142 141 140 131 77 33 26 26 16 350 348 5 13 8 2 358 353 344 335 333 334 335 334 335 337 337 336 333 330 328 328 327 326 322 319 317 314 312 310 311 310 308 307 307 306 304 302 298 289 279 270 264 261 255 248 244 241 238 235 234 233 234 235 238 238 238 238 237 232 227 223 224 231 236 235 232 229 225
151 146 138 134 136 138 138 136 131 122 97 47 36 33 29 21 7 9 19 19 12 6 1 354 346 341 338 336 335 335 336 339 339 337 334 333 332 333 333 330 326 324 321 319 318 318 316 314 312 311 311 310 309 308 305 297 285 274 266 262 257 250 245 241 238 236 235 232 230 232 235 237 238 238 234 227 222 220 222 227 227 224 221 221 221
149 145 140 138 137 133 126 124 122 110 73 55 42 31 29 32 32 31 28 22 14 8 3 355 349 346 344 342 339 337 337 340 341 339 338 338 338 340 339 336 334 336 338 336 332 328 325 322 318 317 318 317 314 310 306 301 294 283 273 267 262 256 249 243 239 237 234 231 230 230 231 233 234 233 228 224 221 222 224 225 222 218 215 215 214
146 143 143 142 137 129 123 122 117 112 150 155 39 32 36 40 37 32 26 21 13 8 4 357 351 352 352 348 344 343 344 345 344 343 343 345 346 347 347 345 346 349 351 351 347 342 338 333 327 325 324 322 319 314 306 300 296 288 278 269 263 259 254 249 244 240 235 232 231 230 230 230 229 224 220 220 221 222 223 222 218 214 212 212 210
145 142 142 141 135 127 125 107 31 140 164 141 60 49 50 46 37 29 21 15 8 5 3 357 354 358 360 355 351 351 351 350 348 349 352 353 353 354 356 358 358 357 357 357 354 350 347 341 336 333 330 325 323 320 312 304 297 287 279 272 264 257 252 249 247 244 238 234 233 231 228 225 222 218 215 216 219 219 217 216 214 211 209 208 206
140 137 136 138 139 137 115 81 82 187 163 96 68 63 56 43 30 21 14 9 5 4 2 357 358 5 7 0 356 357 356 354 355 357 359 360 0 2 3 3 1 0 1 360 357 354 352 347 342 339 337 331 327 325 321 315 306 292 283 279 274 267 261 255 249 243 234 228 227 225 220 217 215 215 215 217 219 219 216 213 212 209 207 205 203
141 142 143 145 150 147 81 63 155 182 123 83 76 69 54 35 20 10 3 359 2 8 7 2 4 10 11 5 1 0 358 358 1 5 6 6 8 8 7 5 2 1 1 0 358 356 354 351 347 344 342 339 334 330 327 323 318 308 296 287 280 275 272 264 252 239 226 219 216 214 212 211 211 213 214 215 215 213 209 206 203 200 199 198 195
152 156 155 154 158 165 359 97 172 165 116 89 81 68 44 23 12 4 356 350 359 12 13 11 11 12 10 6 4 2 360 1 7 11 12 12 12 11 8 7 5 3 2 360 358 355 354 353 350 347 346 344 340 336 332 328 324 320 311 299 285 275 269 260 246 231 221 215 212 210 209 209 209 211 213 213 211 207 203 201 197 192 188 188 187
157 157 150 145 138 104 90 124 166 171 138 95 77 42 5 0 4 3 357 352 359 10 12 13 15 15 11 7 6 4 3 7 11 14 14 15 15 12 9 8 7 6 4 1 359 356 354 354 353 350 349 348 345 342 339 334 329 324 316 305 289 269 259 251 239 226 216 212 210 208 208 208 208 209 209 209 208 204 199 195 193 190 185 182 180
138 132 121 117 119 113 108 120 151 157 141 102 55 3 353 356 0 7 8 2 358 4 8 12 17 18 15 11 9 7 8 12 15 15 15 16 16 14 12 10 8 7 6 2 360 358 357 356 355 353 352 350 348 347 345 341 336 328 314 301 283 260 244 236 229 220 212 209 208 206 204 205 205 203 202 201 201 199 193 188 186 185 183 179 176
119 120 122 124 121 118 118 130 144 148 146 124 57 49 41 15 6 17 22 12 356 358 4 10 18 21 18 16 14 12 12 16 18 18 18 19 18 17 16 14 12 10 8 4 1 360 360 0 359 357 356 353 350 350 350 346 341 332 312 291 271 249 231 220 216 212 208 207 207 204 200 198 198 196 194 192 190 188 186 183 180 178 176 174 171
107 111 119 123 120 123 131 141 148 152 150 122 97 73 43 15 11 20 27 19 359 352 359 10 20 22 20 20 19 17 16 19 21 20 20 21 21 20 20 18 17 14 11 7 5 3 2 3 3 1 0 358 356 355 355 351 347 337 314 280 252 235 220 209 205 205 203 202 201 199 194 190 188 187 186 184 181 179 178 177 175 172 169 166 163
98 99 109 120 128 138 147 154 160 156 113 91 94 77 38 19 13 14 17 15 3 351 356 10 21 21 20 23 25 22 21 23 23 22 22 23 23 23 23 22 21 19 16 12 10 8 7 8 8 6 5 4 2 1 0 359 358 353 326 222 196 193 195 193 193 193 194 192 190 188 186 184 181 179 178 176 174 173 172 169 167 165 162 159 159
108 108 118 127 135 142 146 145 144 127 89 73 72 62 45 33 22 14 9 6 358 347 353 9 20 20 20 24 27 27 25 24 23 23 23 24 24 25 26 25 25 24 22 19 15 13 14 15 14 13 12 11 9 8 10 13 17 28 112 150 154 158 163 170 175 179 181 181 177 175 174 174 173 171 170 169 170 168 165 161 158 156 156 156 157
129 126 125 125 126 131 139 142 134 105 71 52 53 60 58 49 32 19 10 1 351 344 349 7 17 18 18 22 26 28 28 26 23 22 23 24 25 26 27 28 29 29 28 26 23 20 21 23 22 22 22 21 19 18 22 32 41 65 114 136 142 144 148 154 161 166 170 170 167 164 163 163 162 162 161 161 162 160 156 154 153 153 154 155 155
138 143 137 125 120 124 133 141 138 109 75 59 61 59 52 44 35 24 14 5 355 346 348 2 14 16 18 20 23 26 28 27 25 22 22 25 27 27 26 29 32 33 33 32 30 28 28 29 30 30 30 31 32 33 35 40 51 71 100 122 133 138 142 147 151 155 159 160 158 157 155 154 153 154 154 153 153 151 149 150 152 153 154 153 152
119 125 126 123 122 120 116 114 111 95 81 79 68 49 40 38 36 28 19 9 358 348 346 355 8 15 17 17 20 25 28 28 27 24 22 24 28 29 28 28 32 36 38 38 36 36 35 34 35 37 38 38 42 47 51 53 59 71 87 106 122 131 138 145 147 149 151 152 151 151 150 148 147 147 148 148 147 147 148 150 152 152 152 151 149
93 102 111 116 116 107 95 95 101 96 86 79 62 44 37 34 31 26 20 13 1 349 342 347 1 14 18 17 19 24 27 28 28 27 24 23 27 30 31 31 32 36 41 42 40 40 40 40 39 41 44 46 48 51 56 63 68 75 85 97 111 124 134 141 143 144 145 147 148 149 148 146 144 143 144 145 146 148 149 150 151 151 152 151 152
71 81 88 86 77 69 70 80 96 97 84 68 55 46 40 35 28 22 21 19 9 355 345 348 357 9 18 19 18 22 27 29 29 29 29 26 26 30 34 35 34 36 39 39 37 37 40 44 46 46 47 50 52 53 56 62 71 81 91 99 108 120 132 139 141 143 145 146 147 147 147 145 143 143 144 146 148 149 149 149 150 152 153 154 156
74 76 76 74 72 74 77 81 84 81 72 63 53 43 36 32 25 18 17 20 19 11 4 3 0 3 14 21 19 20 25 28 29 30 31 30 28 28 33 36 37 37 36 34 32 31 34 41 47 51 52 54 57 58 59 62 68 79 90 99 107 117 127 135 140 143 146 147 147 147 146 145 145 146 147 149 149 149 149 149 150 152 152 151 150
70 66 69 73 75 76 76 73 69 64 57 49 42 34 27 23 17 12 13 19 24 24 23 18 8 1 8 16 17 17 21 25 26 28 31 33 32 29 30 35 39 42 41 39 38 38 38 39 43 48 53 57 60 64 67 68 69 73 80 88 98 110 121 130 137 141 144 144 144 144 144 143 143 144 145 146 145 145 145 144 143 142 141 140 140
Height
1495 1497 1498 1499 1501 1502 1504 1507 1509 1510 1511 1512 1513 1514 1515 1516 1517 1518 1519 1519 1520 1521 1521 1521 1521 1521 1520 1519 1519 1518 1517 1516 1516 1515 1514 1513 1512 1511 1510 1509 1509 1509 1509 1508 1508 1508 1507 1507 1506 1506 1506 1505 1505 1506 1506 1507 1507 1507 1507 1508 1508 1507 1508 1507 1506 1503 1503 1504 1505 1506 1506 1507 1506 1506 1507 1508 1510 1511 1510 1509 1511 1513 1514 1515 1516
1494 1495 1497 1497 1498 1500 1502 1504 1506 1508 1509 1510 1511 1512 1513 1514 1515 1516 1517 1518 1519 1519 1519 1519 1519 1518 1518 1517 1516 1516 1515 1514 1513 1512 1511 1510 1509 1508 1508 1507 1506 1506 1505 1505 1505 1505 1504 1503 1503 1503 1502 1501 1501 1501 1502 1503 1503 1503 1503 1504 1504 1504 1505 1504 1503 1501 1499 1500 1501 1502 1503 1504 1503 1503 1503 1504 1506 1508 1508 1507 1509 1510 1511 1512 1512
1492 1494 1495 1496 1497 1498 1500 1502 1504 1505 1506 1507 1508 1510 1511 1512 1513 1514 1515 1516 1517 1517 1517 1517 1517 1516 1515 1514 1514 1513 1513 1512 1511 1510 1509 1508 1507 1506 1505 1505 1504 1503 1502 1502 1501 1501 1500 1499 1499 1499 1498 1497 1497 1497 1497 1498 1499 1499 1500 1500 1500 1500 1501 1501 1500 1499 1497 1496 1497 1498 1499 1500 1500 1500 1500 1501 1502 1503 1504 1505 1506 1507 1508 1508 1509
1489 1492 1493 1495 1496 1497 1498 1500 1502 1503 1504 1505 1506 1508 1509 1510 1511 1512 1513 1514 1515 1515 1515 1514 1514 1513 1513 1512 1511 1511 1510 1509 1508 1507 1507 1506 1505 1504 1503 1502 1501 1500 1499 1498 1498 1497 1497 1496 1495 1495 1494 1494 1493 1493 1494 1494 1494 1495 1496 1496 1496 1496 1497 1498 1497 1496 1495 1493 1494 1495 1496 1496 1497 1498 1498 1498 1498 1498 1500 1501 1502 1504 1505 1505 1506
1486 1488 1491 1493 1494 1495 1497 1498 1500 1501 1502 1503 1504 1506 1507 1508 1510 1511 1512 1512 1512 1512 1512 1512 1511 1511 1511 1510 1510 1509 1508 1507 1506 1505 1504 1503 1502 1501 1500 1499 1498 1497 1496 1495 1495 1494 1493 1492 1492 1491 1491 1490 1489 1489 1490 1490 1490 1491 1491 1492 1493 1493 1493 1494 1494 1493 1492 1491 1490 1491 1492 1493 1493 1494 1495 1495 1495 1494 1495 1497 1499 1500 1502 1502 1503
1487 1487 1488 1490 1493 1494 1495 1497 1498 1499 1501 1502 1503 1505 1506 1507 1508 1509 1510 1510 1510 1510 1510 1509 1509 1509 1509 1508 1507 1507 1506 1505 1504 1503 1502 1501 1499 1498 1497 1496 1495 1494 1493 1492 1492 1491 1490 1489 1489 1488 1487 1487 1486 1486 1486 1486 1486 1486 1487 1488 1489 1490 1489 1490 1490 1490 1489 1489 1488 1488 1489 1489 1489 1489 1490 1492 1492 1491 1491 1492 1494 1495 1497 1498 1499
1487 1488 1489 1490 1492 1494 1494 1496 1498 1499 1500 1501 1502 1504 1505 1506 1507 1508 1508 1508 1508 1508 1508 1508 1508 1507 1507 1506 1505 1504 1503 1502 1501 1500 1499 1498 1497 1496 1494 1493 1492 1491 1491 1490 1490 1489 1488 1487 1486 1485 1484 1484 1483 1482 1482 1482 1482 1482 1483 1484 1485 1485 1485 1486 1486 1487 1487 1486 1486 1485 1486 1486 1486 1486 1486 1488 1488 1487 1487 1488 1488 1490 1491 1493 1495
1481 1486 1489 1491 1492 1494 1495 1497 1498 1499 1500 1501 1502 1503 1503 1504 1505 1506 1507 1507 1507 1507 1507 1507 1506 1505 1505 1504 1502 1501 1500 1500 1499 1498 1497 1495 1494 1493 1491 1490 1489 1488 1488 1487 1487 1486 1486 1485 1484 1483 1482 1481 1481 1480 1479 1479 1479 1478 1479 1480 1480 1481 1481 1481 1482 1483 1483 1483 1483 1483 1483 1483 1483 1482 1483 1483 1484 1483 1483 1484 1484 1485 1487 1489 1491
1474 1478 1483 1487 1491 1495 1497 1499 1499 1500 1501 1501 1501 1502 1502 1503 1504 1505 1506 1506 1506 1506 1506 1505 1504 1503 1502 1501 1500 1499 1498 1497 1496 1495 1494 1492 1491 1490 1488 1487 1486 1484 1484 1483 1483 1482 1482 1481 1481 1480 1479 1479 1478 1477 1477 1476 1476 1475 1475 1476 1477 1476 1476 1477 1477 1478 1478 1479 1479 1480 1479 1479 1479 1479 1479 1479 1480 1480 1481 1481 1482 1482 1484 1485 1487
1469 1472 1476 1482 1488 1494 1498 1500 1501 1501 1501 1502 1501 1501 1501 1502 1503 1504 1504 1505 1505 1505 1504 1503 1502 1500 1499 1498 1497 1496 1495 1494 1493 1492 1491 1490 1488 1487 1485 1484 1482 1481 1480 1479 1478 1478 1477 1477 1476 1476 1475 1474 1474 1473 1472 1472 1472 1471 1471 1471 1472 1472 1472 1472 1472 1473 1473 1473 1474 1476 1476 1475 1476 1477 1477 1477 1478 1478 1478 1478 1479 1479 1480 1481 1482
1466 1469 1472 1476 1482 1490 1496 1498 1500 1501 1501 1501 1501 1500 1501 1501 1502 1503 1503 1504 1504 1503 1502 1501 1499 1498 1497 1495 1495 1494 1493 1492 1491 1489 1488 1487 1485 1483 1481 1480 1479 1477 1476 1475 1473 1473 1472 1471 1471 1471 1470 1469 1469 1468 1467 1467 1467 1467 1466 1467 1467 1468 1468 1468 1467 1468 1469 1468 1468 1470 1471 1471 1472 1474 1474 1475 1475 1475 1475 1475 1475 1476 1476 1477 1478
1465 1466 1468 1470 1474 1481 1489 1494 1497 1499 1500 1500 1499 1499 1500 1500 1500 1501 1502 1502 1502 1501 1500 1498 1496 1495 1494 1493 1493 1491 1490 1489 1488 1486 1485 1483 1482 1480 1478 1477 1475 1474 1472 1471 1469 1468 1467 1466 1465 1465 1464 1464 1463 1463 1462 1462 1461 1461 1461 1461 1461 1462 1463 1464 1463 1463 1464 1464 1463 1464 1465 1466 1468 1469 1471 1472 1472 1472 1472 1472 1473 1473 1473 1473 1474
1462 1465 1467 1468 1469 1474 1481 1488 1493 1496 1497 1498 1498 1498 1498 1498 1499 1500 1500 1501 1500 1499 1497 1496 1494 1493 1492 1491 1490 1489 1487 1486 1484 1482 1480 1479 1478 1476 1475 1473 1471 1470 1468 1467 1465 1464 1462 1461 1459 1459 1458 1458 1457 1457 1456 1456 1456 1456 1456 1456 1455 1455 1456 1458 1458 1459 1459 1459 1458 1458 1459 1462 1462 1463 1467 1469 1469 1469 1470 1470 1470 1470 1470 1470 1471
1458 1461 1464 1465 1466 1469 1474 1480 1486 1490 1493 1494 1495 1495 1495 1496 1497 1497 1498 1498 1498 1497 1495 1494 1493 1492 1490 1489 1487 1485 1483 1482 1480 1478 1476 1475 1474 1472 1471 1469 1467 1465 1464 1463 1461 1459 1458 1457 1454 1453 1453 1452 1452 1451 1451 1450 1450 1449 1449 1449 1449 1449 1449 1450 1452 1453 1454 1455 1454 1453 1454 1457 1457 1457 1461 1465 1465 1466 1466 1466 1467 1468 1468 1468 1469
1456 1457 1460 1462 1463 1465 1468 1474 1479 1483 1487 1490 1491 1492 1492 1493 1494 1495 1496 1496 1495 1494 1494 1493 1492 1490 1488 1486 1483 1481 1480 1478 1476 1474 1472 1470 1469 1467 1466 1464 1462 1460 1459 1458 1456 1455 1453 1452 1450 1448 1447 1446 1446 1446 1446 1445 1444 1443 1443 1442 1442 1442 1442 1443 1445 1447 1448 1449 1449 1449 1450 1451 1452 1453 1456 1459 1460 1461 1463 1463 1464 1465 1465 1466 1466
1457 1456 1457 1459 1462 1463 1466 1470 1475 1478 1482 1486 1487 1488 1489 1491 1492 1492 1493 1493 1493 1492 1492 1491 1489 1487 1485 1483 1480 1478 1477 1475 1473 1470 1468 1467 1464 1462 1460 1458 1456 1454 1453 1452 1451 1450 1449 1447 1445 1444 1442 1441 1441 1441 1441 1441 1439 1438 1436 1435 1435 1434 1434 1435 1438 1440 1441 1442 1443 1443 1444 1445 1447 1448 1450 1452 1454 1457 1459 1460 1460 1461 1461 1462 1462
1459 1459 1459 1460 1464 1465 1466 1469 1474 1476 1479 1482 1484 1485 1487 1488 1489 1490 1490 1490 1490 1490 1490 1488 1486 1484 1482 1480 1477 1475 1474 1472 1470 1467 1465 1463 1460 1457 1455 1452 1450 1448 1447 1446 1445 1444 1443 1442 1441 1439 1437 1436 1436 1436 1436 1436 1434 1432 1431 1429 1429 1427 1426 1428 1431 1432 1433 1435 1436 1437 1438 1439 1441 1443 1445 1446 1448 1452 1454 1454 1454 1456 1457 1457 1457
1457 1460 1461 1463 1465 1467 1467 1470 1474 1477 1479 1481 1482 1483 1485 1486 1487 1487 1487 1488 1488 1487 1487 1485 1484 1481 1479 1477 1474 1472 1470 1469 1467 1464 1462 1459 1456 1453 1450 1447 1444 1442 1441 1440 1439 1438 1437 1436 1435 1434 1431 1431 1430 1430 1430 1430 1428 1427 1426 1424 1423 1421 1420 1423 1425 1425 1426 1428 1429 1431 1432 1434 1435 1437 1439 1441 1443 1446 1446 1447 1448 1451 1451 1451 1452
1453 1457 1460 1462 1463 1464 1467 1470 1473 1475 1477 1479 1481 1482 1483 1484 1484 1485 1485 1485 1485 1485 1484 1483 1481 1479 1476 1473 1471 1470 1468 1466 1463 1460 1457 1455 1452 1448 1445 1442 1438 1436 1435 1433 1432 1431 1430 1429 1428 1427 1426 1425 1425 1424 1424 1424 1422 1420 1420 1419 1416 1414 1416 1419 1420 1420 1421 1422 1422 1424 1426 1428 1430 1431 1432 1435 1437 1439 1439 1441 1444 1445 1445 1446 1449
1450 1454 1457 1460 1462 1464 1468 1471 1473 1474 1475 1477 1479 1481 1481 1482 1482 1482 1482 1482 1482 1482 1481 1480 1478 1476 1473 1471 1469 1468 1466 1462 1460 1457 1453 1451 1448 1444 1441 1437 1434 1431 1429 1427 1425 1423 1423 1422 1421 1420 1419 1418 1418 1417 1417 1417 1416 1415 1414 1413 1409 1409 1412 1415 1414 1415 1416 1416 1416 1418 1419 1421 1423 1425 1426 1429 1431 1433 1434 1435 1438 1439 1440 1442 1444
1447 1451 1454 1457 1461 1464 1468 1471 1473 1473 1475 1476 1478 1479 1480 1480 1479 1480 1480 1480 1480 1479 1478 1477 1475 1473 1470 1469 1467 1466 1464 1460 1456 1453 1450 1446 1444 1440 1437 1433 1430 1427 1423 1421 1418 1416 1415 1414 1413 1413 1413 1411 1411 1410 1409 1409 1409 1408 1407 1405 1404 1406 1408 1409 1409 1410 1411 1410 1410 1411 1412 1413 1416 1418 1421 1423 1425 1427 1428 1429 1431 1433 1435 1437 1438
1443 1448 1453 1457 1460 1463 1467 1470 1472 1473 1474 1475 1477 1477 1477 1477 1477 1477 1477 1477 1477 1477 1476 1475 1473 1471 1469 1468 1466 1464 1461 1457 1452 1449 1445 1442 1439 1436 1432 1429 1426 1423 1418 1414 1412 1410 1408 1407 1406 1406 1405 1404 1404 1403 1402 1402 1402 1400 1399 1399 1400 1402 1403 1403 1403 1405 1405 1404 1405 1405 1405 1406 1408 1411 1414 1416 1418 1421 1423 1424 1426 1428 1430 1432 1434
1440 1445 1450 1455 1459 1463 1466 1468 1470 1472 1473 1474 1474 1474 1474 1475 1475 1475 1475 1475 1475 1475 1474 1472 1471 1469 1467 1465 1463 1460 1457 1453 1448 1444 1441 1437 1433 1431 1427 1424 1422 1419 1414 1409 1406 1404 1401 1400 1399 1399 1398 1397 1396 1395 1394 1394 1393 1392 1391 1393 1394 1396 1397 1397 1397 1398 1398 1398 1398 1398 1398 1400 1402 1404 1407 1410 1413 1416 1417 1419 1422 1424 1426 1428 1429
1438 1444 1449 1454 1458 1461 1464 1467 1468 1470 1471 1471 1472 1472 1473 1473 1474 1473 1473 1473 1473 1473 1472 1470 1468 1466 1464 1462 1460 1457 1453 1448 1444 1440 1436 1432 1428 1425 1422 1419 1416 1413 1409 1404 1401 1398 1395 1393 1392 1392 1391 1389 1388 1387 1386 1385 1385 1384 1384 1385 1387 1389 1390 1390 1391 1392 1392 1392 1392 1392 1392 1394 1395 1397 1401 1405 1408 1411 1413 1415 1417 1419 1421 1423 1425
1435 1443 1450 1454 1457 1460 1463 1465 1467 1468 1468 1469 1470 1470 1471 1472 1472 1472 1472 1472 1472 1471 1470 1468 1466 1464 1461 1458 1455 1452 1448 1444 1440 1436 1431 1427 1422 1419 1416 1413 1410 1407 1403 1399 1396 1392 1389 1387 1386 1384 1383 1382 1380 1379 1378 1377 1376 1376 1376 1378 1380 1381 1382 1383 1384 1385 1385 1385 1386 1386 1387 1389 1391 1393 1396 1400 1403 1406 1408 1409 1411 1413 1416 1418 1420
1437 1444 1449 1454 1457 1460 1462 1463 1465 1466 1466 1467 1468 1469 1471 1471 1471 1471 1471 1471 1470 1469 1468 1466 1464 1461 1458 1455 1451 1448 1444 1440 1435 1431 1427 1422 1418 1414 1411 1407 1404 1401 1397 1393 1390 1386 1383 1381 1379 1377 1376 1374 1373 1372 1370 1369 1369 1369 1369 1370 1371 1373 1374 1376 1378 1379 1379 1379 1380 1381 1383 1385 1387 1389 1392 1395 1398 1400 1403 1405 1407 1408 1411 1413 1416
1439 1444 1449 1454 1457 1459 1460 1462 1463 1464 1465 1466 1467 1469 1470 1470 1470 1470 1470 1469 1468 1467 1465 1463 1461 1458 1455 1451 1448 1444 1440 1437 1432 1427 1423 1418 1413 1409 1405 1402 1398 1395 1391 1387 1384 1381 1378 1375 1373 1371 1369 1368 1367 1365 1364 1363 1362 1362 1362 1362 1363 1365 1367 1369 1371 1372 1373 1375 1376 1377 1379 1382 1384 1385 1387 1390 1393 1396 1399 1401 1402 1404 1407 1410 1411
1441 1445 1450 1454 1456 1458 1460 1461 1462 1463 1464 1466 1467 1469 1469 1469 1469 1469 1468 1467 1466 1465 1463 1460 1457 1454 1451 1448 1444 1441 1437 1434 1429 1424 1419 1414 1409 1404 1400 1397 1393 1389 1385 1382 1378 1375 1372 1370 1367 1365 1364 1362 1360 1359 1357 1356 1356 1355 1355 1356 1356 1358 1360 1363 1365 1367 1368 1370 1372 1374 1376 1378 1380 1381 1383 1386 1389 1392 1395 1397 1399 1401 1403 1406 1407
1443 1447 1451 1454 1456 1458 1459 1460 1461 1462 1464 1466 1467 1468 1468 1468 1467 1467 1466 1465 1464 1462 1460 1457 1454 1451 1448 1446 1442 1438 1434 1430 1426 1421 1416 1411 1406 1402 1397 1393 1389 1385 1382 1378 1375 1371 1368 1365 1363 1360 1359 1356 1354 1353 1351 1350 1350 1349 1350 1350 1351 1353 1355 1357 1359 1361 1363 1366 1368 1370 1372 1374 1376 1378 1380 1382 1385 1389 1392 1394 1396 1398 1400 1402 1404
1444 1448 1451 1454 1456 1457 1458 1459 1461 1462 1464 1465 1466 1466 1466 1466 1466 1465 1464 1463 1461 1460 1457 1454 1452 1449 1446 1444 1441 1437 1432 1427 1423 1418 1413 1408 1404 1399 1395 1390 1386 1382 1378 1375 1372 1368 1364 1361 1359 1356 1354 1352 1349 1347 1346 1345 1344 1344 1345 1346 1347 1348 1350 1352 1354 1356 1359 1361 1364 1366 1368 1371 1372 1374 1376 1379 1383 1386 1389 1391 1393 1395 1396 1398 1400
1445 1448 1451 1453 1455 1456 1457 1459 1460 1462 1463 1464 1465 1465 1465 1464 1464 1463 1462 1461 1459 1457 1455 1452 1450 1447 1444 1441 1439 1435 1431 1426 1421 1415 1410 1405 1401 1396 1392 1387 1383 1379 1376 1372 1368 1365 1362 1359 1356 1353 1351 1348 1346 1344 1342 1341 1340 1340 1341 1342 1343 1344 1346 1347 1349 1352 1354 1357 1360 1362 1364 1366 1368 1370 1373 1376 1380 1383 1386 1388 1390 1392 1393 1395 1397
1446 1448 1450 1452 1453 1455 1457 1458 1460 1461 1462 1463 1464 1464 1463 1463 1462 1462 1461 1459 1457 1455 1453 1450 1448 1446 1443 1440 1436 1432 1429 1424 1419 1413 1408 1403 1398 1393 1388 1384 1380 1376 1373 1369 1366 1362 1360 1356 1353 1351 1348 1346 1343 1341 1340 1338 1337 1337 1337 1337 1338 1339 1341 1343 1345 1347 1349 1352 1355 1358 1360 1362 1365 1367 1370 1373 1377 1380 1382 1385 1387 1389 1391 1393 1396
1446 1448 1449 1451 1453 1455 1457 1458 1459 1460 1461 1462 1462 1462 1462 1461 1461 1460 1459 1457 1455 1453 1451 1449 1447 1444 1441 1438 1435 1431 1428 1422 1416 1410 1405 1400 1395 1390 1386 1382 1378 1374 1370 1367 1364 1360 1357 1354 1351 1349 1346 1343 1341 1339 1338 1336 1335 1335 1334 1334 1335 1336 1337 1339 1341 1343 1346 1348 1350 1353 1356 1359 1361 1364 1368 1371 1374 1377 1379 1382 1385 1387 1389 1391 1394
1446 1447 1449 1451 1453 1455 1456 1457 1459 1459 1460 1461 1461 1461 1461 1460 1459 1458 1457 1456 1454 1452 1450 1448 1446 1443 1439 1437 1434 1431 1426 1420 1414 1408 1403 1398 1393 1388 1383 1379 1375 1371 1368 1365 1362 1358 1355 1352 1349 1347 1344 1341 1339 1337 1336 1335 1334 1333 1333 1333 1333 1334 1335 1336 1338 1340 1342 1344 1347 1349 1352 1355 1358 1361 1364 1367 1371 1374 1377 1379 1381 1384 1386 1389 1392
1446 1448 1450 1451 1453 1454 1456 1457 1458 1459 1459 1460 1460 1460 1459 1458 1457 1457 1455 1454 1453 1451 1449 1447 1444 1441 1438 1435 1432 1429 1424 1418 1412 1406 1401 1395 1390 1386 1380 1375 1371 1368 1366 1363 1360 1357 1354 1351 1348 1345 1343 1340 1338 1336 1334 1333 1332 1332 1332 1332 1332 1332 1333 1334 1335 1336 1338 1340 1343 1345 1349 1352 1354 1357 1361 1364 1367 1370 1373 1376 1379 1382 1384 1387 1390
1446 1449 1450 1452 1453 1454 1456 1457 1457 1458 1458 1458 1458 1458 1457 1457 1456 1455 1454 1453 1452 1450 1448 1446 1443 1440 1437 1434 1431 1427 1422 1417 1411 1404 1399 1394 1389 1384 1379 1374 1371 1368 1364 1361 1359 1356 1353 1350 1347 1345 1342 1339 1337 1335 1333 1332 1331 1330 1330 1330 1330 1330 1330 1331 1331 1332 1334 1336 1339 1342 1345 1349 1352 1356 1359 1362 1365 1367 1370 1374 1377 1380 1382 1385 1388
1447 1449 1450 1452 1453 1454 1455 1456 1457 1457 1457 1457 1457 1457 1457 1456 1456 1454 1453 1452 1451 1449 1447 1444 1441 1438 1435 1432 1429 1425 1421 1416 1410 1404 1398 1393 1387 1383 1379 1375 1372 1368 1365 1361 1358 1355 1352 1350 1347 1344 1342 1339 1336 1334 1333 1331 1330 1329 1329 1328 1328 1328 1328 1328 1329 1330 1332 1334 1337 1340 1344 1347 1351 1354 1357 1360 1362 1365 1368 1372 1375 1378 1381 1384 1387
1447 1449 1450 1452 1453 1454 1455 1455 1455 1456 1456 1457 1457 1457 1456 1455 1455 1453 1452 1451 1449 1447 1445 1442 1439 1436 1433 1430 1427 1423 1419 1414 1408 1402 1396 1391 1386 1382 1379 1376 1372 1369 1365 1362 1359 1356 1353 1350 1347 1344 1342 1339 1336 1334 1333 1331 1330 1329 1328 1328 1327 1327 1327 1328 1328 1330 1331 1334 1337 1340 1343 1346 1349 1352 1355 1358 1360 1363 1367 1370 1373 1377 1381 1384 1387
1448 1449 1451 1452 1453 1453 1454 1454 1455 1455 1456 1456 1456 1456 1455 1454 1453 1452 1451 1449 1448 1446 1444 1441 1438 1435 1432 1429 1426 1422 1418 1413 1406 1400 1395 1390 1386 1383 1379 1376 1373 1369 1366 1363 1360 1357 1354 1351 1348 1345 1342 1339 1337 1335 1333 1331 1330 1329 1329 1328 1328 1328 1328 1328 1329 1330 1332 1334 1337 1340 1342 1345 1348 1351 1354 1357 1360 1363 1366 1369 1373 1376 1380 1384 1387
1449 1450 1451 1451 1452 1452 1453 1454 1455 1455 1456 1456 1455 1455 1454 1453 1452 1451 1450 1448 1447 1445 1443 1440 1438 1435 1432 1429 1425 1422 1418 1413 1407 1401 1396 1392 1388 1384 1381 1377 1374 1371 1367 1364 1361 1358 1355 1352 1349 1346 1343 1340 1338 1336 1334 1332 1331 1330 1329 1329 1329 1329 1329 1330 1331 1332 1333 1335 1337 1340 1343 1345 1348 1351 1354 1357 1360 1363 1366 1370 1373 1377 1379 1383 1386
1449 1450 1450 1451 1451 1452 1453 1454 1455 1455 1455 1454 1454 1453 1453 1452 1451 1450 1448 1447 1446 1444 1442 1440 1437 1435 1432 1429 1426 1423 1420 1415 1410 1404 1399 1394 1390 1387 1383 1380 1376 1373 1370 1366 1363 1360 1357 1354 1351 1348 1345 1342 1340 1337 1335 1334 1332 1332 1331 1331 1330 1330 1331 1331 1332 1334 1335 1336 1338 1341 1344 1346 1349 1351 1354 1357 1361 1364 1367 1371 1374 1376 1379 1383 1386
1449 1450 1450 1451 1451 1452 1453 1454 1454 1454 1453 1453 1452 1452 1451 1451 1450 1449 1448 1446 1445 1443 1441 1439 1437 1435 1432 1430 1427 1424 1421 1417 1412 1407 1402 1397 1393 1389 1386 1383 1379 1375 1372 1369 1366 1363 1359 1356 1353 1350 1347 1345 1342 1340 1338 1336 1335 1334 1333 1333 1332 1332 1332 1333 1334 1335 1336 1338 1340 1342 1344 1348 1350 1353 1355 1358 1361 1365 1368 1371 1374 1377 1380 1384 1388
1449 1449 1450 1451 1451 1452 1453 1453 1453 1452 1452 1452 1451 1451 1451 1450 1450 1448 1447 1446 1444 1442 1440 1439 1437 1435 1432 1430 1427 1425 1422 1418 1414 1409 1404 1400 1396 1392 1388 1385 1382 1378 1375 1372 1369 1366 1363 1360 1356 1354 1351 1348 1345 1343 1341 1339 1338 1337 1336 1335 1335 1335 1335 1335 1336 1337 1338 1339 1341 1343 1346 1349 1351 1354 1357 1360 1363 1366 1370 1372 1375 1378 1381 1385 1390
1449 1449 1450 1450 1451 1452 1452 1452 1452 1452 1451 1451 1451 1451 1450 1450 1449 1448 1447 1445 1444 1442 1440 1438 1437 1435 1433 1430 1428 1425 1422 1419 1415 1411 1407 1403 1399 1395 1391 1388 1385 1382 1378 1375 1372 1369 1366 1363 1360 1357 1354 1352 1349 1347 1345 1343 1341 1340 1339 1338 1338 1337 1338 1338 1339 1340 1341 1342 1343 1345 1348 1350 1353 1356 1358 1361 1364 1367 1371 1374 1378 1381 1384 1387 1391
1449 1450 1450 1451 1451 1452 1452 1452 1452 1452 1451 1451 1451 1450 1450 1449 1449 1447 1446 1445 1443 1441 1440 1439 1437 1435 1433 1431 1428 1426 1423 1420 1417 1413 1410 1406 1402 1398 1395 1391 1388 1385 1382 1379 1376 1373 1370 1367 1364 1361 1358 1356 1353 1351 1349 1347 1346 1344 1343 1342 1342 1341 1341 1342 1342 1343 1344 1345 1346 1347 1350 1353 1355 1358 1361 1364 1367 1370 1373 1377 1381 1384 1387 1391 1394
1450 1450 1451 1451 1452 1452 1452 1452 1452 1452 1451 1451 1450 1450 1450 1449 1448 1447 1446 1444 1443 1442 1440 1439 1437 1435 1433 1431 1429 1427 1424 1421 1418 1415 1412 1409 1405 1402 1398 1395 1391 1388 1385 1383 1380 1377 1374 1371 1368 1366 1363 1360 1358 1356 1354 1352 1350 1349 1348 1347 1346 1346 1346 1346 1346 1347 1348 1349 1350 1351 1353 1355 1358 1361 1364 1367 1371 1374 1377 1380 1384 1387 1391 1395 1398
1450 1451 1451 1452 1452 1453 1453 1453 1452 1451 1451 1451 1450 1450 1449 1449 1448 1447 1445 1444 1443 1441 1440 1438 1437 1435 1434 1432 1430 1427 1425 1423 1420 1417 1415 1412 1409 1405 1402 1399 1395 1392 1389 1386 1384 1381 1378 1376 1373 1370 1368 1366 1363 1361 1359 1357 1356 1354 1353 1352 1352 1351 1351 1351 1351 1352 1352 1353 1355 1356 1357 1359 1362 1365 1368 1371 1375 1378 1381 1384 1388 1392 1395 1399 1401
1451 1451 1452 1452 1453 1453 1453 1453 1452 1451 1451 1450 1450 1450 1449 1449 1448 1447 1445 1444 1443 1441 1440 1438 1437 1436 1434 1432 1431 1428 1426 1424 1421 1419 1416 1414 1412 1409 1406 1403 1400 1397 1393 1391 1388 1385 1382 1380 1378 1375 1373 1371 1368 1366 1365 1363 1361 1360 1359 1358 1357 1357 1357 1357 1357 1357 1358 1359 1360 1361 1362 1363 1365 1369 1372 1375 1379 1382 1385 1389 1392 1396 1399 1402 1405
1451 1452 1452 1452 1453 1453 1453 1452 1452 1451 1450 1450 1450 1450 1449 1448 1447 1446 1445 1444 1443 1441 1439 1438 1437 1436 1434 1433 1431 1429 1428 1425 1423 1421 1418 1416 1414 1412 1409 1406 1404 1401 1398 1395 1392 1390 1387 1385 1382 1380 1378 1376 1374 1372 1370 1368 1367 1365 1364 1364 1363 1363 1363 1363 1363 1363 1364 1365 1366 1367 1367 1369 1371 1374 1377 1380 1384 1387 1390 1393 1397 1400 1403 1406 1408
1452 1452 1453 1453 1453 1453 1453 1453 1452 1451 1450 1450 1450 1449 1449 1448 1447 1447 1446 1445 1443 1441 1439 1438 1437 1436 1435 1433 1432 1430 1428 1426 1424 1422 1420 1418 1416 1414 1412 1410 1407 1405 1402 1400 1397 1394 1392 1390 1387 1385 1383 1380 1378 1377 1375 1374 1373 1371 1370 1370 1369 1369 1369 1369 1369 1369 1370 1371 1372 1373 1374 1375 1377 1380 1383 1386 1389 1392 1395 1398 1401 1404 1406 1408 1411
1453 1453 1454 1454 1454 1454 1454 1453 1452 1451 1450 1450 1449 1449 1448 1448 1447 1447 1446 1445 1443 1442 1440 1438 1437 1436 1435 1433 1432 1431 1429 1427 1426 1424 1422 1420 1418 1416 1414 1413 1411 1408 1407 1405 1402 1399 1397 1394 1392 1390 1388 1385 1383 1382 1380 1379 1378 1377 1376 1376 1375 1375 1374 1374 1375 1375 1376 1376 1378 1379 1380 1381 1383 1385 1388 1391 1394 1397 1399 1402 1404 1406 1409 1411 1413